Cedar Bluff, VA

1:45 AM EST on December 06, 2016 (GMT -0500)
Tazewell County

Weather History for KJFZ - August, 2014

Change the Weather History Date:

Saturday, August 23, 2014

  Actual Average (KBLF) Record (KBLF)
Temperature  
Mean Temperature 76 °F 72 °F  
Max Temperature 83 °F 81 °F 94 °F (2007)
Min Temperature 70 °F 63 °F 51 °F (1997)
Degree Days  
Heating Degree Days 0 0  
Month to date heating degree days 0  
Since 1 June heating degree days 24  
Since 1 July heating degree days 2  
Cooling Degree Days 12 7  
Month to date cooling degree days 178  
Year to date cooling degree days 683  
Since 1 June cooling degree days 592  
Growing Degree Days 26 (Base 50)    
Moisture  
Dew Point 70 °F    
Average Humidity 85    
Maximum Humidity 95    
Minimum Humidity 65    
Precipitation  
Precipitation 0.02 in 0.10 in 0.68 in (2001)
Month to date precipitation 2.49  
Year to date precipitation 27.62  
Snow  
Snow 0.00 in - - ()
Month to date snowfall  
Since 1 June snowfall  
Since 1 July snowfall  
Snow Depth -    
Sea Level Pressure  
Sea Level Pressure 30.09 in    
Wind  
Wind Speed 3 mph (WNW)    
Max Wind Speed 9 mph    
Max Gust Speed -    
Visibility 8 miles    
Events Fog , Rain    
T = Trace of Precipitation, MM = Missing Value Source: NWS Daily Summary

Daily Weather History Graph

Daily Weather History Graph

Search for Another Location

Airport or City:

Trip Planner

Search our weather history database for the weather conditions in past years. The results will help you decide how hot, cold, wet, or windy it might be!

Date:

Astronomy

Aug. 23, 2014 Rise Set
Actual Time 6:50 AM EDT 8:08 PM EDT
Civil Twilight 6:23 AM EDT 8:35 PM EDT
Nautical Twilight 5:51 AM EDT 9:07 PM EDT
Astronomical Twilight 5:17 AM EDT 9:41 PM EDT
Moon 5:06 AM EDT (8/23) 6:52 PM EDT (8/23)
Length of Visible Light 14h 12m
Length of Day
13h 17m
Waning Crescent, 3% of the Moon is Illuminated
Aug 23
Waning Crescent
Aug 25
New
Sep 2
First Quarter
Sep 8
Full
Sep 15
Last Quarter

Hourly Weather History & Observations

Time (EDT) Temp. Heat Index Dew Point Humidity Pressure Visibility Wind Dir Wind Speed Gust Speed Precip Events Conditions
12:15 AM 70.9 °F - 69.1 °F 94% 30.12 in 10.0 mi SSW 4.6 mph - 0.01 in Rain Light Rain
12:35 AM 70.9 °F - 69.1 °F 94% 30.12 in 0.2 mi SSW 3.5 mph - 0.01 in Fog Fog
12:55 AM 71.1 °F - 69.4 °F 95% 30.12 in 0.2 mi WSW 4.6 mph - 0.01 in Fog Fog
1:15 AM 70.9 °F - 69.1 °F 94% 30.12 in 10.0 mi WSW 4.6 mph - N/A   Overcast
1:35 AM 70.9 °F - 69.1 °F 94% 30.12 in 10.0 mi WSW 3.5 mph - N/A   Overcast
1:55 AM 70.9 °F - 69.1 °F 94% 30.11 in 10.0 mi WSW 4.6 mph - 0.01 in Rain Rain
2:15 AM 70.7 °F - 68.9 °F 94% 30.10 in 10.0 mi Calm Calm - N/A   Light Drizzle
2:35 AM 70.7 °F - 68.9 °F 94% 30.10 in 1.0 mi SSW 3.5 mph - N/A   Overcast
2:55 AM 70.3 °F - 68.5 °F 94% 30.10 in 10.0 mi SSW 3.5 mph - N/A   Overcast
3:15 AM 70.7 °F - 68.5 °F 93% 30.10 in 10.0 mi WSW 4.6 mph - N/A   Overcast
3:35 AM 70.7 °F - 68.4 °F 92% 30.08 in 10.0 mi Calm Calm - N/A   Overcast
3:55 AM 70.9 °F - 68.5 °F 92% 30.08 in 10.0 mi Calm Calm - N/A   Overcast
4:15 AM 70.7 °F - 68.5 °F 93% 30.08 in 10.0 mi Calm Calm - N/A   Overcast
4:35 AM 70.3 °F - 68.5 °F 94% 30.08 in 7.0 mi Calm Calm - N/A   Overcast
5:15 AM 70.0 °F - 68.4 °F 95% 30.07 in 0.2 mi Calm Calm - N/A Fog Fog
5:35 AM 70.2 °F - 68.5 °F 95% 30.08 in 0.2 mi West 3.5 mph - N/A Fog Fog
5:55 AM 70.2 °F - 68.5 °F 95% 30.08 in 1.8 mi WSW 3.5 mph - N/A   Overcast
6:15 AM 70.2 °F - 68.4 °F 94% 30.08 in 10.0 mi Calm Calm - N/A   Overcast
6:35 AM 70.2 °F - 68.4 °F 94% 30.08 in 1.5 mi South 3.5 mph - N/A   Overcast
7:15 AM 70.5 °F - 68.7 °F 94% 30.10 in 10.0 mi Calm Calm - N/A   Overcast
7:35 AM 70.7 °F - 68.9 °F 94% 30.10 in 10.0 mi Calm Calm - N/A   Overcast
7:55 AM 70.9 °F - 69.1 °F 94% 30.10 in 10.0 mi Calm Calm - N/A   Overcast
8:15 AM 70.9 °F - 69.1 °F 94% 30.10 in 4.0 mi WSW 3.5 mph - N/A   Overcast
8:35 AM 71.1 °F - 69.3 °F 94% 30.10 in 5.0 mi West 4.6 mph - N/A   Overcast
8:55 AM 71.4 °F - 69.6 °F 94% 30.11 in 0.8 mi West 4.6 mph - N/A Rain Rain
9:15 AM 71.2 °F - 69.4 °F 94% 30.11 in 0.5 mi Calm Calm - N/A Fog Fog
9:35 AM 71.6 °F - 70.0 °F 95% 30.10 in 0.2 mi Calm Calm - N/A Fog Fog
9:55 AM 71.8 °F - 70.2 °F 95% 30.10 in 0.2 mi Calm Calm - N/A Fog Fog
10:15 AM 71.8 °F - 70.2 °F 95% 30.11 in 0.2 mi Calm Calm - N/A Fog Fog
10:35 AM 72.5 °F - 70.7 °F 94% 30.11 in 3.0 mi Calm Calm - N/A   Overcast
10:55 AM 72.5 °F - 70.7 °F 94% 30.12 in 1.8 mi Calm Calm - N/A   Overcast
11:15 AM 73.2 °F - 71.2 °F 93% 30.12 in 3.0 mi Calm Calm - N/A   Overcast
11:35 AM 74.1 °F - 71.1 °F 90% 30.12 in 5.0 mi Calm Calm - N/A   Overcast
11:55 AM 74.7 °F - 71.1 °F 88% 30.13 in 7.0 mi Calm Calm - N/A   Overcast
12:15 PM 75.6 °F - 70.9 °F 85% 30.12 in 10.0 mi Calm Calm - N/A   Overcast
12:35 PM 76.3 °F - 70.9 °F 83% 30.12 in 10.0 mi Calm Calm - N/A   Overcast
12:55 PM 77.2 °F - 71.1 °F 81% 30.12 in 10.0 mi Calm Calm - N/A   Overcast
1:15 PM 79.0 °F - 71.1 °F 77% 30.12 in 10.0 mi NW 3.5 mph - N/A   Overcast
1:35 PM 79.3 °F - 71.4 °F 77% 30.12 in 10.0 mi NW 5.8 mph - N/A   Overcast
1:55 PM 79.2 °F - 70.5 °F 75% 30.11 in 10.0 mi NNW 5.8 mph - N/A   Overcast
2:15 PM 79.7 °F - 70.3 °F 73% 30.11 in 10.0 mi NW 4.6 mph - N/A   Mostly Cloudy
2:35 PM 81.7 °F 85.2 °F 69.6 °F 67% 30.10 in 10.0 mi NW 3.5 mph - N/A   Mostly Cloudy
2:55 PM 81.7 °F 85.2 °F 69.6 °F 67% 30.10 in 10.0 mi NNW 9.2 mph - N/A   Mostly Cloudy
3:15 PM 82.9 °F 87.0 °F 70.0 °F 65% 30.10 in 10.0 mi WNW 5.8 mph - N/A   Scattered Clouds
3:35 PM 82.0 °F 85.7 °F 69.6 °F 66% 30.10 in 10.0 mi NW 5.8 mph - N/A   Mostly Cloudy
3:55 PM 83.5 °F 88.0 °F 70.7 °F 65% 30.08 in 10.0 mi NW 5.8 mph - N/A   Overcast
4:15 PM 81.9 °F 85.8 °F 70.2 °F 68% 30.08 in 10.0 mi NW 5.8 mph - N/A   Overcast
4:35 PM 81.1 °F 84.7 °F 70.2 °F 69% 30.08 in 10.0 mi NNW 4.6 mph - N/A   Mostly Cloudy
4:55 PM 82.0 °F 86.1 °F 70.7 °F 68% 30.08 in 10.0 mi NW 5.8 mph - N/A   Scattered Clouds
5:15 PM 82.0 °F 85.5 °F 69.4 °F 65% 30.07 in 10.0 mi NW 4.6 mph - N/A   Overcast
5:35 PM 81.0 °F 84.4 °F 69.8 °F 69% 30.07 in 10.0 mi NNW 6.9 mph - N/A   Overcast
5:55 PM 81.3 °F 84.8 °F 69.8 °F 68% 30.07 in 10.0 mi NNW 6.9 mph - N/A   Mostly Cloudy
6:15 PM 81.1 °F 84.7 °F 70.2 °F 69% 30.07 in 10.0 mi NNW 3.5 mph - N/A   Mostly Cloudy
6:35 PM 80.8 °F 83.9 °F 69.4 °F 68% 30.06 in 10.0 mi NNW 6.9 mph - N/A   Mostly Cloudy
6:55 PM 80.1 °F 82.8 °F 68.7 °F 68% 30.05 in 10.0 mi NNW 4.6 mph - N/A   Clear
7:15 PM 79.7 °F - 68.9 °F 69% 30.05 in 10.0 mi NW 3.5 mph - N/A   Clear
7:35 PM 79.0 °F - 69.6 °F 73% 30.05 in 10.0 mi Calm Calm - N/A   Clear
7:55 PM 78.3 °F - 70.0 °F 76% 30.04 in 10.0 mi Calm Calm - N/A   Clear
8:15 PM 77.9 °F - 69.8 °F 76% 30.05 in 10.0 mi Calm Calm - N/A   Clear
8:35 PM 77.0 °F - 70.0 °F 79% 30.05 in 10.0 mi NNW 3.5 mph - N/A   Clear
8:55 PM 76.1 °F - 70.7 °F 83% 30.05 in 10.0 mi Calm Calm - N/A   Clear
9:15 PM 75.2 °F - 71.1 °F 87% 30.07 in 10.0 mi Calm Calm - N/A   Clear
9:35 PM 74.5 °F - 70.9 °F 88% 30.08 in 10.0 mi Calm Calm - N/A   Clear
9:55 PM 73.9 °F - 70.7 °F 90% 30.08 in 10.0 mi Calm Calm - N/A   Clear
10:15 PM 73.4 °F - 70.7 °F 91% 30.08 in 10.0 mi NNE 3.5 mph - N/A   Clear
10:35 PM 73.2 °F - 70.3 °F 91% 30.09 in 10.0 mi Calm Calm - N/A   Clear
10:55 PM 73.4 °F - 70.7 °F 91% 30.10 in 10.0 mi Calm Calm - N/A   Clear
11:15 PM 73.8 °F - 70.3 °F 89% 30.10 in 10.0 mi Calm Calm - N/A   Clear
11:35 PM 73.2 °F - 70.3 °F 91% 30.11 in 7.0 mi Calm Calm - N/A   Clear
11:55 PM 74.1 °F - 70.7 °F 89% 30.11 in 10.0 mi Calm Calm - N/A   Clear